Belize, Belize

9:13 PM CST on August 28, 2016 (GMT -0600)
Philip S W Goldson International

Weather History for MZBZ - September, 2013

Change the Weather History Date:

Wednesday, September 25, 2013

  Actual Average Record
Temperature  
Mean Temperature 86 °F -  
Max Temperature 90 °F 87 °F 91 °F (2004)
Min Temperature 81 °F 73 °F 73 °F (2012)
Cooling Degree Days 20    
Growing Degree Days 36 (Base 50)    
Moisture  
Dew Point 79 °F    
Average Humidity 79    
Maximum Humidity 89    
Minimum Humidity 66    
Precipitation  
Precipitation 0.00 in 0.34 in - ()
Sea Level Pressure  
Sea Level Pressure 29.83 in    
Wind  
Wind Speed 5 mph ()    
Max Wind Speed 9 mph    
Max Gust Speed -    
Visibility 8.2 miles    
Events      
Averages and records for this station are not official NWS values.
T = Trace of Precipitation, MM = Missing Value Source: Averaged Metar Reports

Daily Weather History Graph

Daily Weather History Graph

Search for Another Location

Airport or City:

Trip Planner

Search our weather history database for the weather conditions in past years. The results will help you decide how hot, cold, wet, or windy it might be!

Date:

Astronomy

Sep. 25, 2013 Rise Set
Actual Time 5:42 AM CST 5:46 PM CST
Civil Twilight 5:20 AM CST 6:08 PM CST
Nautical Twilight 4:55 AM CST 6:33 PM CST
Astronomical Twilight 4:30 AM CST 6:58 PM CST
Moon 10:36 PM CST (9/25) 11:04 AM CST (9/25)
Length of Visible Light 12h 47m
Length of Day
12h 03m
Waning Gibbous, 63% of the Moon is Illuminated
Sep 25
Waning Gibbous
Sep 26
Last Quarter
Oct 4
New
Oct 11
First Quarter
Oct 18
Full

Hourly Weather History & Observations

Time (CST) Temp. Heat Index Dew Point Humidity Pressure Visibility Wind Dir Wind Speed Gust Speed Precip Events Conditions
12:00 AM 83 °F - 79 °F 84% 29.85 in 12 mi ESE 4.6 mph - -   Mostly Cloudy
3:00 AM 83 °F - 79 °F 84% 29.81 in 12 mi ESE 4.6 mph - -   Partly Cloudy
5:00 AM 82.4 °F 92.4 °F 78.8 °F 89% 29.82 in 6.2 mi ESE 3.5 mph - N/A   Scattered Clouds
6:00 AM 82 °F - 78 °F 86% 29.82 in 12 mi ESE 2.3 mph - -   Partly Cloudy
6:00 AM 82.4 °F 92.4 °F 78.8 °F 89% 29.82 in 6.2 mi ESE 2.3 mph - N/A   Mostly Cloudy
7:00 AM 84.2 °F 96.1 °F 78.8 °F 84% 29.82 in 6.2 mi East 5.8 mph - N/A   Mostly Cloudy
8:00 AM 86.0 °F 101.9 °F 80.6 °F 84% 29.84 in 6.2 mi East 6.9 mph - N/A   Mostly Cloudy
9:00 AM 87 °F - 79 °F 72% 29.86 in 12 mi East 8.1 mph - -   Mostly Cloudy
9:00 AM 86.0 °F 99.3 °F 78.8 °F 79% 29.85 in 6.2 mi East 8.1 mph - N/A   Mostly Cloudy
10:00 AM 87.8 °F 102.5 °F 78.8 °F 75% 29.86 in 6.2 mi East 8.1 mph - N/A   Mostly Cloudy
11:00 AM 87.8 °F 102.5 °F 78.8 °F 75% 29.86 in 6.2 mi ESE 6.9 mph - N/A   Mostly Cloudy
12:00 PM 89 °F - 79 °F 66% 29.85 in 12 mi SE 6.9 mph - -   Partly Cloudy
12:00 PM 87.8 °F 102.5 °F 78.8 °F 75% 29.84 in 6.2 mi SE 6.9 mph - N/A   Mostly Cloudy
1:00 PM 89.6 °F 104.7 °F 78.8 °F 70% 29.82 in 6.2 mi ESE 8.1 mph - N/A   Mostly Cloudy
2:00 PM 87.8 °F 104.9 °F 80.6 °F 79% 29.80 in 6.2 mi East 6.9 mph - N/A   Scattered Clouds
3:00 PM 89 °F - 79 °F 66% 29.79 in 12 mi East 9.2 mph - -   Partly Cloudy
3:00 PM 89.6 °F 104.7 °F 78.8 °F 70% 29.78 in 6.2 mi East 9.2 mph - N/A   Scattered Clouds
5:00 PM 86.0 °F 101.9 °F 80.6 °F 84% 29.77 in 6.2 mi East 6.9 mph - N/A   Scattered Clouds
6:00 PM 85 °F - 80 °F 79% 29.80 in 12 mi East 5.8 mph - -   Partly Cloudy
6:00 PM 84.2 °F 96.1 °F 78.8 °F 84% 29.79 in 6.2 mi East 5.8 mph - N/A   Scattered Clouds
7:00 PM 84.2 °F 96.1 °F 78.8 °F 84% 29.81 in 6.2 mi East 6.9 mph - N/A   Scattered Clouds
8:00 PM 84.2 °F 96.1 °F 78.8 °F 84% 29.85 in 6.2 mi East 6.9 mph - N/A   Scattered Clouds
9:00 PM 83 °F - 79 °F 84% 29.87 in 12 mi East 5.8 mph - -   Scattered Clouds